Virtual Norwegian is not affiliated with Norwegian Air Shuttle in any way.
If you are looking for the real "Norwegian", or you wish to book Norwegian flights, please visit Norwegian.com


We use cookies to ensure you get the best experience on our website.   ACCEPT

KFLL - FLL - Fort Lauderdale (Fort Lauderdale Hollywood Intl)

General Info Alternate Airport
ICAO: KFLL Elevation: 9 ft ICAO: KMIA
IATA: FLL Country: United States IATA: MIA
City: Fort Lauderdale Charts: Log in to view charts City: Miami
Name: Fort Lauderdale Hollywood Intl Hub: Yes Name Miami Intl
General Info
ICAO: KFLL
IATA: FLL
City: Fort Lauderdale
Name: Fort Lauderdale Hollywood Intl
Elevation: 9 ft
Country: United States
Charts: Log in to view charts
Hub: Yes
 
Alternate Airport
ICAO: KMIA
IATA: MIA
City: Miami
Name: Miami Intl

Weather
240509Z 10007KT 10SM SCT025 BKN035 BKN048 28/26 A2997 RMK AO2 RAE0455 P0000 T02780256
Weather
240509Z 10007KT 10SM SCT025 BKN035 BKN048 28/26 A2997 RMK AO2 RAE0455 P0000 T02780256

Runway Info
10L
Length ILS/LOC Course
2743 m 110.10 096
28R
Length ILS/LOC Course
2743 m 110.70 276

NOTAMs
NOTAMs currently unavailable.
NOTAMs
NOTAMs currently unavailable

Route map
Airport
Airport (hub)